User: anonymous   Login
Location: Unspecified
(0.0000°N, 0.0000°E)
Time: 14:52:39
(UTC+00:00)
Language:

OV3-3 - Orbit

View from above orbital plane
View from above orbital plane
View from above satellite
View from above satellite

Ground track
Ground track

The orbit data is extracted from the following two-line orbital elements,

1 02389U 66070A   18200.70447429  .00002889  00000-0  15766-3 0  9994
2 02389  81.3847 206.9521 1243928  44.0191 325.3437 12.91917421221119
Epoch (UTC): 19 July 2018 16:54:26
Eccentricity: 0.1243928
inclination: 81.3847°
perigee height: 339 km
apogee height: 2248 km
right ascension of ascending node: 206.9521°
argument of perigee: 44.0191°
revolutions per day: 12.91917421
mean anomaly at epoch: 325.3437°
orbit number at epoch: 22111

The dashed part of the orbit path shows where the satellite is in the earth's shadow,  

DLR